User: anonymous   Login
Location: Basse Occidentale du Courleau
(48.3833°N, 4.8333°W)
Time: 23:08:43
(UTC+00:00)
Language:

CREW DRAGON DEMO-1 DEB - Orbit

View from above orbital plane
View from above orbital plane
View from above satellite
View from above satellite

Ground track
Ground track

The orbit data is extracted from the following two-line orbital elements,

1 44064U 19011B   20263.53142764  .00012150  00000-0  11619-3 0  9995
2 44064  51.6337 195.0416 0003934  67.4457 292.6955 15.67165082 87658
Epoch (UTC): 19 September 2020 12:45:15
Eccentricity: 0.0003934
inclination: 51.6337°
perigee height: 364 km
apogee height: 369 km
right ascension of ascending node: 195.0416°
argument of perigee: 67.4457°
revolutions per day: 15.67165082
mean anomaly at epoch: 292.6955°
orbit number at epoch: 8765

The dashed part of the orbit path shows where the satellite is in the earth's shadow,  

DLR